Muskrat Dam Airport, Ontario

5:15 AM CDT on May 21, 2018 (GMT -0500)
Muskrat Dam

Weather History for CZMD - December, 2013

Change the Weather History Date:

Tuesday, December 24, 2013

  Actual Average Record
Temperature  
Mean Temperature -9 °F -  
Max Temperature 3 °F - - ()
Min Temperature -21 °F - - ()
Degree Days  
Heating Degree Days 74    
Moisture  
Dew Point -11 °F    
Average Humidity 74    
Maximum Humidity 92    
Minimum Humidity 53    
Precipitation  
Precipitation 0.00 in - - ()
Sea Level Pressure  
Sea Level Pressure 30.05 in    
Wind  
Wind Speed 12 mph ()    
Max Wind Speed 17 mph    
Max Gust Speed 25 mph    
Visibility 7.6 miles    
Events Snow    
T = Trace of Precipitation, MM = Missing Value Source: Averaged Metar Reports

Daily Weather History Graph

Daily Weather History Graph

Search for Another Location

Airport or City:

Astronomy

Dec. 24, 2013 Rise Set
Actual Time 8:22 AM CST 3:51 PM CST
Civil Twilight 7:39 AM CST 4:34 PM CST
Nautical Twilight 6:53 AM CST 5:20 PM CST
Astronomical Twilight 6:10 AM CST 6:02 PM CST
Moon No Moon Rise 11:20 AM CST (12/24)
Length of Visible Light 8h 55m
Length of Day
7h 29m
Waning Gibbous, 58% of the Moon is Illuminated
Dec 24
Waning Gibbous
Dec 25
Last Quarter
Jan 1
New
Jan 7
First Quarter
Jan 15
Full

Hourly Weather History & Observations

Time (CST) Temp. Windchill Dew Point Humidity Pressure Visibility Wind Dir Wind Speed Gust Speed Precip Events Conditions
12:00 AM -16 °F - -22 °F 61% 30.33 in 10 mi SSW 13.8 mph - -  
12:00 AM -16.6 °F -38.9 °F -22.0 °F 76% 30.32 in 9.0 mi SSW 12.7 mph 18.4 mph N/A   Clear
1:00 AM -16.6 °F -39.8 °F -22.0 °F 76% 30.30 in 9.0 mi SSW 13.8 mph - N/A   Clear
2:00 AM -14.8 °F -36.6 °F -22.0 °F 70% 30.27 in 9.0 mi SSW 12.7 mph 18.4 mph N/A   Scattered Clouds
3:00 AM -14.8 °F -35.6 °F -20.2 °F 77% 30.23 in 9.0 mi SSW 11.5 mph 18.4 mph N/A   Scattered Clouds
4:00 AM -13.0 °F -35.2 °F -20.2 °F 70% 30.20 in 9.0 mi SSW 13.8 mph 19.6 mph N/A   Clear
5:00 AM -13.0 °F -33.4 °F -20.2 °F 70% 30.17 in 9.0 mi SSW 11.5 mph 18.4 mph N/A   Clear
6:00 AM -12 °F - -19 °F 55% 30.14 in 10 mi South 10.4 mph - -  
6:00 AM -11.2 °F -30.1 °F -18.4 °F 70% 30.14 in 9.0 mi South 10.4 mph 17.3 mph N/A   Partly Cloudy
7:00 AM -11.2 °F -32.9 °F -20.2 °F 64% 30.12 in 9.0 mi SSW 13.8 mph - N/A   Scattered Clouds
8:00 AM -9.4 °F -27.9 °F -18.4 °F 65% 30.09 in 9.0 mi South 10.4 mph 17.3 mph N/A   Overcast
9:00 AM -7.6 °F -28.3 °F -16.6 °F 65% 30.06 in 9.0 mi SSW 13.8 mph 20.7 mph N/A   Overcast
10:00 AM -5.8 °F -26.0 °F -14.8 °F 65% 30.02 in 9.0 mi South 13.8 mph 21.9 mph N/A   Mostly Cloudy
11:00 AM -2.2 °F -22.2 °F -11.2 °F 66% 30.00 in 9.0 mi SSW 15.0 mph 25.3 mph N/A   Overcast
12:00 PM -1 °F - -9 °F 53% 29.97 in 10 mi SSW 15.0 mph - -   Overcast
12:00 PM -0.4 °F -19.9 °F -9.4 °F 66% 29.97 in 9.0 mi SSW 15.0 mph 23.0 mph N/A   Overcast
1:00 PM -0.4 °F -21.2 °F -5.8 °F 78% 29.95 in 1.5 mi SSW 17.3 mph 25.3 mph N/A Snow Light Snow
2:00 PM 1.4 °F -17.6 °F -4.0 °F 78% 29.92 in 0.8 mi SSW 15.0 mph - N/A Snow Light Snow
3:00 PM 1.4 °F -17.6 °F -2.2 °F 85% 29.91 in 1.0 mi SW 15.0 mph 20.7 mph N/A Snow Light Snow
4:00 PM 1.4 °F -18.2 °F -2.2 °F 85% 29.91 in 9.0 mi SW 16.1 mph - N/A Snow Light Snow
5:00 PM 1.4 °F -16.9 °F -2.2 °F 85% 29.92 in 7.0 mi SW 13.8 mph - N/A Snow Light Snow
6:00 PM 2 °F - -2 °F 77% 29.92 in 3 mi SW 12.7 mph - - Snow Light Snow
6:00 PM 1.4 °F -16.9 °F -2.2 °F 85% 29.92 in 3.0 mi SW 13.8 mph - N/A Snow Light Snow
7:00 PM 3.2 °F -13.1 °F -2.2 °F 78% 29.92 in 9.0 mi SW 11.5 mph - N/A Snow Light Snow
8:00 PM 1.4 °F -13.5 °F -2.2 °F 85% 29.92 in 9.0 mi SW 9.2 mph - N/A Snow Light Snow
9:00 PM 1.4 °F -13.5 °F -2.2 °F 85% 29.93 in 5.0 mi SW 9.2 mph - N/A Snow Light Snow
10:00 PM 1.4 °F -12.5 °F -2.2 °F 85% 29.92 in 9.0 mi SW 8.1 mph - N/A Snow Light Snow
11:00 PM 1.4 °F -11.3 °F -0.4 °F 92% 29.92 in 9.0 mi SW 6.9 mph - N/A Snow Light Snow